This is the latest recevied weather packets stored in our database for station/object W5MAI. If no packets are shown the sender has not sent any weather packets the latest 10 day(s).
| Time | Temp. | Humidity | Pressure | Rain* | Wind** | Luminosity | Snow |
|---|---|---|---|---|---|---|---|
| 1778017423 | 28.89° C | 69% | 1007.6 hPa | 0 mm | - | 504 W/m² | - |
| 1778016845 | 28.89° C | 69% | 1007.9 hPa | 0 mm | - | 452 W/m² | - |
| 1778016207 | 28.89° C | 69% | 1008.1 hPa | 0 mm | - | 675 W/m² | - |
| 1778015633 | 28.33° C | 70% | 1008.1 hPa | 0 mm | - | 506 W/m² | - |
| 1778015061 | 28.33° C | 70% | 1008.2 hPa | 0 mm | - | 545 W/m² | - |
| 1778014423 | 28.33° C | 71% | 1008.5 hPa | 0 mm | - | 262 W/m² | - |
| 1778013854 | 28.33° C | 70% | 1008.5 hPa | 0 mm | - | 362 W/m² | - |
| 1778013205 | 28.33° C | 70% | 1008.7 hPa | 0 mm | - | 415 W/m² | - |
| 1778012633 | 28.33° C | 70% | 1008.8 hPa | 0 mm | - | 582 W/m² | - |
| 1778012007 | 27.78° C | 71% | 1008.9 hPa | 0 mm | - | 865 W/m² | - |
| 1778011436 | 27.78° C | 72% | 1009.1 hPa | 0 mm | - | 849 W/m² | - |
| 1778010806 | 27.78° C | 72% | 1009.1 hPa | 0 mm | - | 422 W/m² | - |
| 1778009638 | 27.22° C | 75% | 1009.4 hPa | 0 mm | - | 598 W/m² | - |
| 1778009005 | 27.22° C | 74% | 1009.5 hPa | 0 mm | - | 445 W/m² | - |
| 1778008422 | 27.22° C | 74% | 1009.7 hPa | 0 mm | - | 868 W/m² | - |
| 1778007853 | 26.67° C | 76% | 1009.8 hPa | 0 mm | - | 635 W/m² | - |
| 1778007216 | 26.11° C | 77% | 1010 hPa | 0 mm | - | 318 W/m² | - |
| 1778006651 | 26.11° C | 76% | 1010.1 hPa | 0 mm | - | 394 W/m² | - |
| 1778006016 | 26.11° C | 77% | 1010.2 hPa | 0 mm | - | 443 W/m² | - |
| 1778005440 | 26.11° C | 78% | 1010.2 hPa | 0 mm | - | 387 W/m² | - |
| 1778004809 | 25.56° C | 78% | 1010.4 hPa | 0 mm | - | 390 W/m² | - |
| 1778004228 | 25° C | 80% | 1010.4 hPa | 0 mm | - | 473 W/m² | - |
| 1778003657 | 25° C | 79% | 1010.6 hPa | 0 mm | - | 292 W/m² | - |
| 1778003008 | 25° C | 79% | 1010.7 hPa | 0 mm | - | 294 W/m² | - |
| 1778002438 | 25° C | 80% | 1010.5 hPa | 0 mm | - | 475 W/m² | - |
* Rain latest hour (hover to see other rain measurements)
** Current wind speed in m/s (hover to see current wind gust speed)